Simultaneous Nadir Overpasses (SNOs) Predictions

Prediction of SNOs between GOES-17 and LANDSAT-8 Satellite Orbit:

Table of predicted SNOs for the next 14.0 days since TLE Epoch: 2/5/2022
Index Date Time (GOES-17) GOES-17 Lat,Lon LANDSAT-8 Lat,Lon Distance(km) Time Diff (sec)
1 02/05/2022 07:16:57 -0.02,-137.19 0.11,-136.46 82.45 80
2 02/07/2022 07:04:46 -0.02,-137.19 0.79,-133.52 418.14 80
3 02/07/2022 19:28:41 0.02,-137.19 0.33,-138.67 167.78 80
4 02/09/2022 19:13:49 0.02,-137.18 -0.29,-135.71 167.10 80
5 02/10/2022 07:37:53 -0.02,-137.17 -0.82,-140.90 424.21 80
6 02/12/2022 07:25:41 -0.02,-137.15 -0.18,-137.95 90.08 80
7 02/14/2022 07:13:29 -0.00,-137.13 0.46,-134.99 242.97 80
8 02/14/2022 19:32:04 -0.00,-137.12 0.65,-140.15 343.68 80
9 02/16/2022 19:19:52 0.00,-137.09 -0.00,-137.19 11.05 80
10 02/18/2022 19:10:19 0.00,-137.06 -0.61,-134.23 322.00 80
